Location: Middle Street
(51.7167°N, 0.0333°E)
Time: 23:45:58
(UTC+00:00)

CSL-04 DEB - Pass Details

Date: 20 January 2021
Orbit: 544 x 628 km, 98.8° (Epoch: 01 March)

Event Time Altitude Azimuth Distance (km) Brightness Sun altitude
Exits shadow 18:09:05 - 15° (NNE) 2,507 7.4 -15.2°
Reaches altitude 10° 18:10:23 10° 15° (NNE) 1,963 6.9 -15.4°
Maximum altitude 18:14:39 84° 288° (WNW) 603 4.5 -16.1°
Drops below altitude 10° 18:18:46 10° 200° (SSW) 1,896 7.5 -16.7°
Sets 18:20:53 0° 199° (SSW) 2,777 8.3 -17.0°
